Location: Invercargill
(46.4000°S, 168.3500°E)
Time: 21:16:46
(UTC+12:00)

Altair - Visible Passes

Search period start: 10 August 2020 00:00
Search period end: 20 August 2020 00:00
Orbit: 1501 x 1682 km, 47.2° (Epoch: 09 August)

Date Brightness Start Highest point End Pass type
(mag) Time Alt. Az. Time Alt. Az. Time Alt. Az.
10 Aug 7.8 18:05:09 10° W 18:15:11 86° S 18:25:29 10° E visible
10 Aug 7.6 20:10:10 10° WSW 20:20:17 78° NNW 20:24:37 41° NE visible
10 Aug 8.6 22:15:19 10° WSW 22:22:39 35° WNW 22:22:39 35° WNW visible
11 Aug 7.7 19:44:57 10° WSW 19:55:05 80° NNW 20:01:04 30° ENE visible
11 Aug 8.4 21:50:02 10° WSW 21:59:07 40° NW 21:59:07 40° NW visible
12 Aug 7.7 19:19:45 10° WSW 19:29:51 83° NNW 19:37:35 20° ENE visible
12 Aug 8.2 21:24:46 10° WSW 21:34:05 43° NW 21:35:39 41° NNW visible
12 Aug 9.7 23:33:32 10° WNW 23:33:41 10° WNW 23:33:41 10° WNW visible
13 Aug 7.7 18:54:33 10° WSW 19:04:38 85° NNW 19:14:11 13° ENE visible
13 Aug 8.3 20:59:32 10° WSW 21:08:58 46° NW 21:12:14 36° N visible
13 Aug 9.6 23:07:23 10° W 23:10:17 13° WNW 23:10:17 13° WNW visible
14 Aug 7.8 18:29:21 10° WSW 18:39:25 87° NNW 18:49:41 10° ENE visible
14 Aug 8.2 20:34:17 10° WSW 20:43:50 49° NW 20:48:56 29° NNE visible
14 Aug 9.4 22:41:32 10° W 22:46:47 15° WNW 22:47:00 15° NW visible
15 Aug 8.2 20:09:04 10° WSW 20:18:41 52° NW 20:25:42 20° NNE visible
15 Aug 9.3 22:15:51 10° W 22:21:45 17° NW 22:23:47 16° NW visible
16 Aug 8.2 19:43:51 10° WSW 19:53:32 55° NW 20:02:36 13° NE visible
16 Aug 9.3 21:50:15 10° W 21:56:43 19° NW 22:00:41 15° NNW visible
17 Aug 8.2 19:18:38 10° WSW 19:28:23 58° NNW 19:38:16 10° NE visible
17 Aug 9.3 21:24:45 10° W 21:31:40 21° NW 21:37:44 12° NNW visible
18 Aug 8.1 18:53:27 10° WSW 19:03:13 61° NNW 19:13:10 10° NE visible
18 Aug 9.3 20:59:18 10° W 21:06:37 23° NW 21:14:01 10° N visible
19 Aug 8.1 18:28:15 10° WSW 18:38:03 64° NNW 18:48:03 10° NE visible
19 Aug 9.2 20:33:53 10° W 20:41:34 26° NW 20:49:19 10° N visible
